Lapse_Rate
7.0 6.5 6.5 6.5 6.5 6.5 6.5 6.5 6.5 6.5 6.5 6.5 6.5 6.5 6.5 6.8 6.9 6.7 7.0 7.2 7.4 7.6 8.2 8.4 8.0 8.3 8.5 8.1 8.1 8.7 8.5 7.7 6.9 6.3 6.5 6.4 7.6 7.5 6.8 7.6 7.6 7.5 7.3 6.9
6.5 6.5 6.5 6.5 6.5 6.5 6.5 6.5 6.5 6.5 6.5 6.5 6.5 6.5 6.5 6.5 6.6 6.9 7.0 7.1 7.3 7.6 7.9 8.2 8.2 8.0 7.8 8.0 7.9 8.1 8.8 8.5 8.4 8.0 6.8 7.7 8.0 6.6 6.5 7.6 7.1 7.5 7.4 7.2
6.5 6.5 6.6 6.5 6.5 6.5 6.5 6.5 6.5 6.5 6.5 6.5 6.5 6.5 6.5 6.5 6.8 7.1 7.3 7.5 7.6 7.6 7.7 8.0 8.1 7.8 7.7 7.7 7.8 8.6 8.3 8.8 8.3 6.1 5.2 4.8 5.1 6.9 7.2 6.8 7.2 7.1 7.2 7.3
6.5 6.6 6.5 6.5 6.5 6.5 6.5 6.5 6.5 6.5 6.5 6.5 6.5 6.5 6.5 6.5 6.5 6.5 6.9 7.2 7.4 7.7 7.9 8.1 8.1 8.0 7.8 7.5 7.4 8.1 7.9 8.7 8.1 5.5 5.1 5.1 4.9 4.6 5.2 7.6 6.1 8.1 6.6 6.9
6.5 6.5 6.5 6.5 6.5 6.5 6.5 6.5 6.5 6.5 6.5 6.5 6.5 6.5 6.5 6.5 6.5 6.5 6.6 7.1 7.4 7.7 7.9 7.9 8.0 8.3 8.5 8.2 8.1 7.6 7.7 8.5 6.4 4.9 4.2 4.0 2.8 3.6 3.6 5.5 6.4 6.6 6.4 6.6
6.5 7.1 6.6 6.5 6.5 6.5 6.5 6.5 6.5 6.5 6.5 6.5 6.5 6.5 6.5 6.5 6.5 6.5 6.7 7.1 7.4 7.7 7.9 8.1 8.3 8.3 8.4 8.4 7.8 7.7 8.1 7.8 6.1 4.3 4.2 3.4 2.3 2.4 3.1 2.0 2.9 4.9 6.6 6.8
6.5 6.5 6.6 6.8 6.5 6.5 6.5 6.5 6.5 6.5 6.5 6.5 6.5 6.5 6.5 6.5 6.5 6.5 6.6 7.1 7.4 7.7 7.7 7.9 8.1 8.3 8.1 7.8 7.7 7.9 8.2 8.0 5.9 4.0 4.2 4.0 3.4 2.8 2.8 3.0 2.2 1.2 0.9 1.0
6.5 6.5 6.5 6.5 6.5 6.5 6.5 6.5 6.5 6.5 6.5 6.5 6.5 6.5 6.5 6.5 6.9 7.1 7.3 7.4 7.6 7.7 7.7 7.8 7.9 7.9 8.1 8.0 7.7 7.4 8.0 8.5 6.3 5.0 4.3 4.2 2.6 2.8 2.3 2.1 2.6 2.1 2.3 1.6
6.5 6.5 6.5 6.5 6.6 6.5 6.5 6.5 6.5 6.5 6.5 6.5 6.5 6.5 6.5 6.5 6.5 6.8 7.0 7.2 7.4 7.6 8.0 8.2 8.2 7.6 7.8 7.8 7.7 7.6 7.9 8.6 7.3 5.8 4.8 4.2 3.9 3.4 2.9 2.1 1.9 2.6 2.4 3.8
6.5 6.5 6.5 6.5 6.7 6.6 6.5 6.5 6.5 6.5 6.5 6.5 6.5 6.5 6.5 6.5 6.5 6.5 6.6 6.8 7.0 7.4 7.8 7.9 8.0 7.5 7.9 8.0 7.9 7.7 8.2 8.5 8.1 7.0 5.6 4.9 4.8 5.0 3.3 1.8 1.0 1.7 -0.3 1.6
6.5 6.5 6.5 6.5 6.5 6.5 6.5 6.5 6.5 6.5 6.5 6.5 6.5 6.5 6.5 6.5 6.5 6.5 6.6 7.0 7.2 7.3 7.6 7.9 7.9 7.7 8.1 8.1 8.3 8.3 8.4 7.3 7.5 6.3 5.0 3.8 4.6 3.8 4.0 2.1 1.1 1.1 0.2 -1.7
6.5 6.5 6.5 6.5 6.5 6.5 6.5 6.5 6.5 6.5 6.5 6.5 6.5 6.5 6.5 6.5 6.6 6.8 6.9 7.3 7.4 7.7 7.8 8.1 8.1 8.1 8.0 8.1 8.5 8.6 6.7 6.2 6.4 5.6 5.0 4.3 4.4 3.7 4.4 3.7 2.2 1.6 1.2 1.1
6.5 6.5 6.5 6.5 6.5 6.5 6.5 6.5 6.5 6.5 6.5 6.5 6.5 6.5 6.5 6.7 6.6 7.0 6.8 7.2 7.5 7.7 7.8 7.9 8.2 8.2 8.4 8.5 8.4 8.7 7.3 6.8 7.1 6.1 5.0 4.1 4.0 3.9 4.2 4.1 2.6 2.0 1.5 1.9
6.4 6.5 6.5 6.5 6.5 6.5 6.5 6.5 6.5 6.5 6.5 6.5 6.5 6.5 6.5 6.5 6.5 6.7 7.0 7.3 7.5 7.6 7.7 7.8 7.8 8.1 8.1 8.4 8.4 8.4 6.9 8.0 7.0 6.5 5.8 5.1 5.1 5.1 4.2 4.3 3.3 2.5 1.9 1.2
6.6 6.5 6.5 6.5 6.5 6.5 6.5 6.5 6.5 6.5 6.5 6.5 6.5 6.5 6.5 6.5 6.5 6.7 7.1 7.4 7.5 7.5 7.7 7.9 7.9 8.0 8.4 8.2 8.5 7.8 6.2 7.3 6.9 6.5 6.3 5.2 4.8 4.7 3.9 3.0 3.3 2.3 1.3 1.4
6.6 6.5 6.5 6.5 6.5 6.5 6.5 6.5 6.5 6.5 6.5 6.5 6.5 6.5 6.5 7.0 7.3 7.0 7.3 7.4 7.4 7.4 7.7 8.0 8.2 8.4 8.5 8.6 8.6 6.7 6.5 6.5 5.8 5.4 5.0 4.6 3.9 3.5 3.3 2.8 3.1 2.9 2.1 1.5
6.5 6.5 6.5 6.5 6.5 6.5 6.5 6.5 6.5 6.5 6.5 6.5 6.5 6.5 6.6 6.5 6.9 7.3 7.4 7.5 7.4 7.6 7.8 8.0 8.1 8.4 8.5 8.6 7.1 4.7 6.9 6.5 5.4 4.7 4.5 4.5 4.6 4.2 3.9 3.4 3.6 3.1 3.1 3.3
6.5 6.5 6.5 6.5 6.5 6.5 6.5 6.5 6.5 6.5 6.5 6.5 6.5 6.5 6.8 7.1 7.6 7.9 7.1 6.5 8.0 8.2 7.9 8.3 8.3 7.2 8.1 7.8 5.6 4.8 6.3 5.6 4.7 4.7 5.0 5.2 5.3 5.1 4.8 4.5 4.4 4.1 4.0 4.0
6.8 6.5 6.5 6.5 6.5 6.5 6.5 6.5 6.5 6.5 6.5 6.5 6.5 6.7 7.2 7.6 7.7 7.3 8.1 6.6 6.3 5.5 6.7 8.2 8.2 8.1 7.8 6.6 4.8 4.8 4.6 4.8 5.1 5.0 5.3 5.6 5.6 5.5 5.4 5.3 5.9 6.4 5.6 5.7
6.5 6.5 6.5 6.5 6.5 6.5 6.5 6.5 7.2 6.9 6.5 7.0 7.2 6.9 7.0 7.3 6.5 6.5 8.1 8.3 8.2 8.2 6.9 6.8 8.2 7.5 6.1 5.3 3.5 4.2 4.8 5.4 5.8 5.6 5.5 5.5 5.4 5.6 6.0 6.6 7.0 8.0 7.9 8.2
6.5 6.5 6.5 6.5 6.5 6.5 6.5 6.9 7.3 6.5 6.5 7.3 7.5 7.5 7.4 6.6 7.2 8.1 8.6 8.3 8.7 8.4 7.5 7.8 7.0 5.8 5.3 4.2 4.6 4.6 5.6 6.1 6.1 5.6 5.6 5.7 5.9 7.2 7.8 8.0 8.4 8.7 8.9 9.0
6.5 6.5 6.5 6.5 6.5 6.5 7.2 6.8 6.5 6.8 7.5 7.6 7.9 8.0 7.7 8.0 8.1 8.3 8.4 8.4 8.3 8.5 8.5 7.3 4.5 3.8 5.1 5.2 5.0 5.6 6.2 6.1 5.7 5.6 5.8 6.5 7.1 8.1 8.6 8.5 8.7 8.6 8.4 8.1
6.5 6.5 6.5 6.5 6.5 6.9 7.4 7.2 7.8 8.1 7.9 8.0 8.1 8.2 7.3 7.8 7.9 8.2 8.3 7.7 7.0 8.0 7.9 5.2 3.3 4.3 5.2 5.1 5.9 6.3 6.2 6.0 6.3 6.6 7.2 7.4 7.1 6.8 6.4 5.9 6.6 7.2 7.9 7.9
6.5 7.0 6.5 6.5 6.6 6.8 7.3 7.8 8.1 8.1 8.0 8.5 8.2 6.5 8.2 7.9 8.0 7.9 7.9 6.3 7.2 6.8 7.8 5.7 4.5 4.7 5.1 5.5 5.7 5.7 5.7 6.2 7.0 6.4 6.5 6.1 5.4 5.3 6.0 5.5 4.8 4.5 4.8 4.8
6.8 6.8 6.5 6.5 6.7 7.1 7.5 7.8 8.0 8.0 8.0 7.9 7.7 8.3 8.2 8.2 7.9 8.1 6.9 6.8 6.5 6.0 5.3 5.7 5.5 5.9 6.5 6.1 6.2 6.2 6.5 7.7 8.2 8.6 8.7 8.3 7.9 6.4 5.6 5.3 5.6 5.4 5.2 5.0
7.1 6.5 6.5 6.5 7.1 7.0 7.2 8.0 8.2 7.9 7.8 8.0 7.5 8.1 8.4 7.9 7.0 6.7 6.3 5.8 4.9 5.9 5.9 5.6 5.9 5.9 6.3 6.3 6.7 7.4 8.2 9.1 9.0 9.0 9.0 8.9 8.9 8.8 8.8 6.7 5.8 6.7 7.0 7.4
Wind_Speed
7 6 11 10 9 11 13 15 18 18 18 18 17 20 21 19 19 17 11 14 13 12 12 13 15 15 15 12 15 16 14 14 13 12 11 9 6 9 10 11 17 14 12 14
6 11 11 9 12 14 15 17 17 17 17 18 20 24 22 22 5 10 9 10 9 9 12 14 14 13 11 13 12 16 16 13 11 11 12 12 10 9 8 11 14 15 14 15
9 10 11 8 10 11 12 13 16 19 20 19 21 20 20 21 7 13 11 8 8 11 10 11 12 11 11 12 13 15 18 14 12 16 11 11 12 12 9 11 8 12 15 15
7 8 7 9 10 11 10 17 18 18 18 15 16 19 18 18 14 13 10 6 8 9 10 10 11 12 12 12 12 15 18 15 14 17 13 14 10 12 14 11 11 12 15 16
6 3 7 9 12 13 15 13 16 19 19 20 16 11 12 10 15 11 7 7 7 8 8 10 11 13 14 14 14 12 16 18 14 15 16 13 13 10 12 14 14 16 9 15
11 2 2 7 12 12 10 14 19 18 14 12 17 15 11 11 15 1 10 6 8 9 11 12 14 15 15 15 14 13 14 18 13 14 15 15 15 15 12 14 12 12 10 8
11 4 10 7 12 13 18 14 7 4 5 9 21 14 13 18 12 10 10 10 10 10 11 12 14 15 15 16 16 16 19 19 14 15 14 14 14 13 14 13 9 11 10 8
6 1 5 7 7 8 14 6 4 6 9 15 19 9 9 15 16 12 9 8 10 11 8 8 10 9 13 15 15 17 20 21 12 13 13 12 12 7 8 12 10 9 9 10
5 3 10 8 5 5 6 7 10 9 14 12 11 23 17 19 17 17 16 15 12 14 23 24 21 11 11 12 13 14 19 20 12 12 9 10 10 11 9 11 10 9 13 13
3 6 8 4 6 11 11 7 6 5 5 10 11 25 11 17 21 23 10 18 21 20 18 17 17 12 11 11 11 14 15 18 18 13 10 8 11 10 11 11 13 11 14 17
6 3 5 13 13 11 7 8 8 10 9 11 12 13 7 26 26 19 24 20 22 21 19 19 15 8 9 11 13 15 17 22 19 9 9 9 9 11 10 11 12 13 15 19
7 4 6 17 18 6 7 6 5 5 13 12 12 18 23 21 20 22 23 24 22 20 21 18 16 14 12 12 13 14 17 19 14 9 9 9 9 11 11 11 13 14 15 17
8 3 6 2 8 6 3 12 17 17 14 19 15 13 13 20 20 20 21 17 19 19 17 16 15 13 11 10 12 13 15 14 12 8 8 9 10 10 11 13 14 15 15 16
3 4 8 8 13 16 20 19 18 17 12 16 20 25 21 23 22 18 17 19 15 18 12 10 8 11 12 12 12 13 15 12 11 8 8 8 9 11 11 11 13 14 15 16
2 5 10 14 18 19 21 21 20 18 17 17 22 26 21 20 21 22 20 18 17 12 11 10 11 11 11 8 12 13 14 12 10 10 10 11 11 11 12 13 13 14 16 15
4 6 12 16 19 15 17 22 20 15 15 17 21 24 20 21 22 21 18 20 20 8 6 9 14 12 10 14 13 15 13 10 10 10 11 11 11 11 11 11 12 13 15 15
6 4 7 5 12 18 10 9 15 18 16 18 19 21 22 23 25 28 25 18 11 6 7 10 11 9 16 14 14 14 11 10 10 11 10 9 9 10 11 12 11 13 13 13
5 6 5 8 11 3 10 18 10 20 19 22 23 21 23 23 23 23 23 26 25 22 19 18 14 15 12 13 12 12 11 10 10 10 10 9 10 11 11 12 13 12 11 13
10 6 3 3 9 15 13 12 19 18 26 17 23 25 25 25 26 21 19 7 12 13 22 23 9 13 13 11 13 13 12 10 10 11 11 11 11 11 12 12 11 10 7 8
8 7 5 2 7 5 9 21 20 21 20 26 27 24 24 25 17 17 21 20 17 15 14 25 8 14 12 12 14 13 10 9 10 11 11 11 12 11 11 9 7 7 8 10
7 6 9 9 8 9 12 22 20 13 18 27 24 24 25 22 16 24 23 21 24 13 20 9 15 14 13 13 13 12 9 10 11 12 12 12 11 10 8 7 7 8 9 8
3 2 4 6 8 9 22 21 14 16 20 23 26 25 26 26 26 23 21 19 20 14 8 16 15 15 13 13 12 11 11 10 11 12 12 11 11 10 9 11 11 11 10 11
2 5 4 4 6 17 14 16 17 20 22 24 25 26 24 25 24 21 16 15 17 11 11 14 15 15 13 12 11 11 11 10 10 10 10 12 12 12 12 12 12 10 11 9
7 9 6 10 4 14 17 17 21 21 21 22 23 22 20 19 18 15 13 11 11 10 13 13 15 15 14 13 12 11 9 7 8 10 12 11 11 11 11 9 9 9 8 8
8 9 7 11 14 17 13 20 19 20 21 22 21 16 16 17 17 13 10 10 14 12 12 13 13 14 13 12 10 8 5 5 7 8 9 8 7 8 9 9 7 7 8 10
6 7 4 3 9 8 14 17 16 19 19 19 20 16 14 14 11 8 12 13 12 10 13 14 15 14 13 11 9 6 5 8 8 9 8 8 8 7 7 6 6 12 12 18
Wind_Direction
310 283 285 12 353 330 321 313 307 300 309 319 310 309 304 298 283 283 61 57 48 35 21 24 32 25 5 16 2 345 351 2 351 343 336 330 307 253 246 234 240 232 227 215
262 257 35 2 330 320 308 296 299 313 324 330 312 296 287 282 309 78 68 70 54 36 28 24 22 18 1 7 3 352 348 358 358 353 339 326 305 297 294 260 242 228 225 224
302 306 15 350 320 310 302 306 328 324 316 303 291 298 309 305 143 104 85 70 56 47 37 20 16 12 1 12 3 1 344 350 7 4 343 335 328 313 288 290 242 227 222 222
292 25 357 336 312 343 320 335 321 313 311 306 316 296 300 303 127 110 97 76 48 42 32 19 18 6 358 8 5 356 344 348 14 2 348 340 329 325 321 288 285 268 218 220
324 322 354 309 358 337 302 330 301 299 295 293 297 275 299 356 62 106 108 89 61 42 30 12 16 6 4 5 359 358 346 338 23 5 348 344 334 319 314 311 289 278 231 221
269 341 196 13 321 292 283 294 314 289 263 265 279 348 324 343 349 3 134 92 57 31 21 4 5 6 1 357 351 354 348 336 27 10 350 345 336 332 336 338 346 327 300 260
324 305 108 26 332 337 2 335 315 317 312 299 348 331 297 317 335 18 54 56 39 16 20 4 359 359 358 353 349 352 349 340 24 10 356 349 343 345 346 344 355 4 349 341
317 244 34 26 1 331 311 297 302 303 326 311 313 261 304 350 62 56 50 34 12 353 348 350 358 357 1 353 356 350 348 335 22 7 355 354 350 355 6 358 1 13 5 354
335 249 4 304 10 334 336 303 354 298 286 281 279 291 330 33 53 28 359 339 340 328 352 351 355 6 3 354 359 358 347 335 8 3 5 3 357 6 8 18 19 13 28 9
28 295 309 354 334 262 223 295 321 307 302 297 305 304 290 21 355 346 319 340 340 341 326 331 338 354 1 4 2 359 347 356 352 355 1 5 7 18 8 16 26 25 40 29
315 259 289 298 282 300 323 274 318 318 291 287 299 280 334 335 333 331 328 332 329 324 324 324 322 339 10 10 10 360 8 356 342 18 14 22 6 35 21 29 29 23 35 55
37 313 290 279 281 317 20 308 287 282 299 291 297 283 296 299 328 334 331 328 334 343 334 347 2 10 10 11 11 14 27 9 7 12 14 20 34 35 28 34 41 38 43 42
3 281 308 340 113 133 256 339 319 302 298 285 285 274 315 319 322 326 316 335 332 322 329 5 6 360 352 357 15 15 27 5 346 8 19 33 46 41 42 37 42 40 40 40
0 275 278 277 298 299 298 304 300 292 282 286 275 294 311 315 315 319 326 324 318 318 15 1 330 352 349 3 23 23 22 4 349 6 32 37 44 49 51 51 50 51 49 45
253 275 298 293 295 298 293 291 294 293 292 289 300 295 305 317 327 322 314 302 320 333 14 347 326 346 335 18 19 34 22 4 6 22 31 41 44 52 55 56 46 52 53 49
259 286 308 294 286 287 315 300 289 286 305 305 307 301 311 315 302 293 314 319 317 15 357 336 341 331 359 28 26 33 24 22 33 36 37 38 50 56 55 56 50 58 55 51
291 300 324 279 332 317 285 10 329 313 321 316 306 318 331 344 358 347 331 339 357 6 337 338 333 341 39 34 39 43 22 20 36 41 40 40 40 49 47 47 45 47 55 55
254 278 289 297 325 258 342 325 338 326 326 328 319 343 341 339 339 334 9 13 358 358 357 347 329 58 40 33 43 58 34 35 49 54 48 41 41 47 51 53 51 49 44 42
219 250 284 287 306 292 281 23 346 342 318 331 347 332 324 323 318 302 302 1 329 339 331 303 29 61 52 46 50 57 54 51 52 57 53 48 49 51 51 50 49 49 45 62
199 200 243 281 297 292 324 326 344 329 300 1 341 330 327 328 309 302 319 311 299 307 306 293 64 63 57 57 66 70 64 62 58 57 55 50 48 47 45 41 37 45 43 49
190 218 233 242 247 265 275 356 344 318 325 332 338 332 325 313 302 306 310 319 308 303 299 72 74 68 60 66 74 75 69 61 62 63 62 60 59 54 49 45 41 45 48 50
249 273 278 279 283 280 356 352 354 321 333 335 330 325 319 313 304 304 303 305 302 291 299 77 74 67 68 76 81 79 70 66 67 67 62 52 47 39 38 43 48 42 41 45
277 227 264 277 274 319 342 354 350 343 335 334 324 321 317 309 304 299 299 295 293 359 77 73 81 81 74 74 76 78 72 73 71 70 65 64 60 56 46 38 35 29 30 35
295 315 303 307 288 309 345 345 343 342 340 327 318 313 313 318 325 317 300 295 56 73 74 81 83 84 80 76 76 79 80 77 77 76 76 68 60 55 56 60 48 41 31 34
274 309 268 276 288 343 331 333 342 340 333 321 324 329 326 337 330 335 328 81 81 74 74 82 85 82 81 79 77 74 70 70 76 74 82 86 92 91 79 64 59 62 61 59
222 232 272 308 354 321 312 330 341 340 327 329 333 334 331 349 342 347 67 68 72 85 89 83 79 78 72 69 64 61 51 56 69 67 55 48 50 44 55 95 90 74 75 66